Regional Weather Roundup
Issued by NWS

Home | Current Version | Previous Version | Graphics & Text | Print | Product List | Glossary On
Versions: 1 2 3 4 5 6 7 8 9 10 11 12 13 14 15 16 17 18 19 20 21 22 23 24 25 26 27 28 29 30 31 32 33 34 35 36 37 38 39 40 41 42 43 44 45 46 47 48
000
ASUS45 KSLC 012310
RWRUT

UTAH REGIONAL WEATHER ROUNDUP
NATIONAL WEATHER SERVICE SALT LAKE CITY UT
500 PM MDT TUE SEP 01 2015

UTZ001>011-023>025-020000-

NORTHERN UTAH

CITY           SKY/WX    TMP DP  RH WIND       PRES   REMARKS
BRIGHAM CITY   SUNNY     90  33  13 CALM      29.92F
HILL AFB       MOSUNNY   88  45  21 VRB5      29.95F
LOGAN          MOSUNNY   89  38  16 VRB7      29.92F
OGDEN          SUNNY     89  41  18 CALM      29.92F
PROVO AIRPORT  MOSUNNY   90  43  19 CALM      29.95F
SALT LAKE CITY PTSUNNY   90  38  16 S13       29.89F
VERNAL         CLOUDY    75  48  38 S16       30.09R
WENDOVER       SUNNY     91  39  16 E15       29.87F
HEBER CITY     MOSUNNY   86  37  17 SW9       30.03F
WEST JORDAN    MOSUNNY   90  41  18 SE20      29.93F

$$

UTZ012>022-026-027-020000-

SOUTHERN/CENTRAL UTAH

CITY           SKY/WX    TMP DP  RH WIND       PRES   REMARKS
BLANDING       MOSUNNY   83  44  25 SW10      30.20F
BRYCE CANYON   MOSUNNY   76  38  25 S13G21    30.26S
CEDAR CITY     SUNNY     84  38  19 SW15G26   30.08F
DELTA          SUNNY     91  30  11 SW16G24   29.97F
HANKSVILLE     PTSUNNY   90  43  19 N6        30.01F
MILFORD        SUNNY     89  29  11 SW22G32   30.01F
MOAB/CYNLANDS  MOSUNNY   87  47  24 NW13G18   29.99S
PRICE          PTSUNNY   77  45  32 E5        30.11F
ST GEORGE      PTCLDY    97  46  17 SW10G17   29.89F HX  93
KANAB          SUNNY     84  50  30 SW7G16    30.11F

$$

REGIONAL REPORTS     COLORADO/ARIZONA

CITY           SKY/WX    TMP DP  RH WIND       PRES   REMARKS
CRAIG, CO      CLOUDY    76  44  32 S15       30.15R
GRAND JUNCTION MOSUNNY   85  45  24 VRB3      30.02F
RIFLE          MOSUNNY   83  44  25 CALM      30.09F
MONTROSE       PTSUNNY   79  51  37 NW8       30.12R
CORTEZ         SUNNY     86  39  19 SW12      30.13S
PAGE, AZ       MOSUNNY   89  49  25 NW8       30.02F
GRAND CANYON   PTSUNNY   80  48  32 SW17G23   30.20F
KINGMAN        MOSUNNY   90  42  18 SW23      29.97F
FLAGSTAFF      PTSUNNY   72  50  45 SW12      30.27R

$$

REGIONAL REPORTS    NEVADA/IDAHO/WYOMING

CITY           SKY/WX    TMP DP  RH WIND       PRES   REMARKS
LAS VEGAS, NV  MOSUNNY   98  49  18 SE10      29.79F HX  95
ELY            MOSUNNY   84  29  13 S8G26     30.07F
ELKO           HAZE      90  25   9 W12G30    29.92F VSB 3/4
POCATELLO, ID  SUNNY     88  28  11 W12       29.91F
BURLEY         MOSUNNY   83  38  20 N7        29.86F
EVANSTON, WY   PTSUNNY   76  36  23 SW15      30.14F
ROCK SPRINGS   CLOUDY    67  51  56 SE5       30.15F
KEMMERER       PTSUNNY   81  30  16 SW14G22   30.14F

$$


USA.gov is the U.S. government's official web portal to all federal, state and local government web resources and services.